Regional Weather Roundup
Issued by NWS

Home | Current Version | Previous Version | Text Only | Print | Product List | Glossary On
Versions: 1 2 3 4 5 6 7 8 9 10 11 12 13 14 15 16 17 18 19 20 21 22 23 24 25 26 27 28 29 30 31 32 33 34 35 36 37 38 39 40 41 42 43 44 45 46 47 48 49 50
000
ASUS44 KLUB 312301
RWRTX
WEST TEXAS WEATHER ROUNDUP
NATIONAL WEATHER SERVICE LUBBOCK TX
600 PM CDT THU JUL 31 2014

NOTE: "FAIR" INDICATES FEW OR NO CLOUDS BELOW 12,000 FEET WITH NO
SIGNIFICANT WEATHER AND/OR OBSTRUCTIONS TO VISIBILITY.

TXZ004-006>008-010-012-014-016-OKZ002-010000-
TEXAS PANHANDLE/OKLAHOMA PANHANDLE

CITY           SKY/WX    TMP DP  RH WIND       PRES   REMARKS
AMARILLO       SUNNY     80  53  39 NE13      30.16F
BORGER         MOSUNNY   81  53  37 N12       30.14F
CANADIAN       SUNNY     80  55  41 NE9       30.10F
DALHART        MOSUNNY   78  47  33 E8        30.20F
DUMAS          SUNNY     76  53  43 N8        30.18S
GUYMON         MOSUNNY   81  53  37 N15       30.14S
HEREFORD       SUNNY     80  52  36 E3        30.17F
PAMPA          MOSUNNY   77  51  39 NE9       30.16S
PERRYTON       MOSUNNY   80  55  41 NE10      30.13F
$$

TXZ026-029-035-045-048-010000-
SOUTHERN PANHANDLE/SOUTH PLAINS/ROLLING PLAINS

CITY           SKY/WX    TMP DP  RH WIND       PRES   REMARKS
CHILDRESS      MOSUNNY   80  58  46 NE7       30.09F
SEMINOLE       MOSUNNY   85  53  33 E6        30.12F HAZE
LUBBOCK        PTSUNNY   83  52  34 NE5       30.13S
PLAINVIEW      MOSUNNY   80  50  35 E9        30.13S
SNYDER         SUNNY     82  61  48 E10       30.09S
$$

TXZ052-054-060>062-072-078-127-140-154-169-010000-
PERMIAN BASIN/CONCHO VALLEY/BIG COUNTRY/EDWARDS PLATEAU

CITY           SKY/WX    TMP DP  RH WIND       PRES   REMARKS
ABILENE        MOSUNNY   80  63  55 N12G18    30.05F
BIG SPRING     MOSUNNY   85  56  35 NE6       30.10F
BRADY          SUNNY     84  64  51 N7        30.03F
BROWNWOOD      CLOUDY    82  64  54 N10       30.02S
JUNCTION       MOSUNNY   91  65  41 N13G18    29.99F
MIDLAND        MOSUNNY   84  57  39 N13       30.10F
ODESSA         MOSUNNY   82  56  40 E13G18    30.11F
SAN ANGELO     MOSUNNY   85  63  47 E10       30.03F
SONORA         MOSUNNY   90  63  40 N8G15     30.05F
SWEETWATER     SUNNY     82  60  46 N12G17    30.11F
WINK           PTSUNNY   86  58  38 VRB3      30.07F
$$

TXZ055-058-074-075-080-082-010000-
FAR WEST/SOUTHWEST MOUNTAINS/TRANS PECOS

CITY           SKY/WX    TMP DP  RH WIND       PRES   REMARKS
ALPINE         MOSUNNY   78  60  54 E5        30.23F
DRYDEN           N/A     96  63  33 N8G20     30.00F HX  97
EL PASO        MOSUNNY   89  56  32 CALM      30.06F
FORT STOCKTON  MOSUNNY   84  61  45 E7        30.10F
GUADALUPE PASS MOSUNNY   67  59  75 NE28      30.23F
MARFA          MOSUNNY   79  59  50 NE15G22   30.21F
PRESIDIO       FAIR      96  59  29 NE12      29.99F HX  95
$$

TXZ014-016-019-021>030-083-010000
TEXAS TECH WEST TEXAS MESONET/TEXAS PANHANDLE/NORTHERN SOUTH PLAINS

CITY           SKY/WX    TMP DP  RH WIND       PRES   REMARKS
ABERNATHY 5ENE   N/A     81  49  32 E10       30.14F
AMARILLO 9NNE    N/A     78  56  45 NE10      30.15F
AMARILLO 7SSE    N/A     80  52  38 NE12      30.17F
AMHERST 1NE      N/A     81  48  32 E6        30.16S
BOOTLEG 11WNW    N/A     79  50  35 NE5       30.21F
CANADIAN 6E      N/A     80  56  44 NW5       30.09F
CAPROCK CYN SP   N/A     81  50  34 NE6       30.11F
CHILDRESS 2NNE   N/A     79  60  51 N7        30.08F
CLARENDON 2WSW   N/A     79  54  42 NE9       30.13S
CLAUDE 12SW      N/A     79  52  38 NE9       30.16F
DIMMITT 2NE      N/A     78  53  40 NE7       30.17F
FLOYDADA 2NNE    N/A     80  47  31 NE10      30.13F
FRIONA 2NE       N/A     77  49  36 E8        30.19F
GOODLETT 3W      N/A     80  62  54 NE8       30.07S
HART 3N          N/A     79  53  40 NE8       30.16S
HEREFORD 2NW     N/A     78  49  36 NE6       30.17F
MCLEAN 1E        N/A     77  55  46 N8        30.12F
MEMPHIS 1NE      N/A     81  52  36 N10       30.09F
MULESHOE 2SSW    N/A     80  47  31 NE7       30.17S
OLTON 6S         N/A     80  49  33 NE9       30.15S
PALO DURO SP     N/A     80  51  36 E12       30.17F
PAMPA 2E         N/A     77  55  46 N10       30.15S
PLAINVIEW 1S     N/A     80  49  33 NE9       30.13F
SILVERTON 7ESE   N/A     79  51  37 NE9       30.14F
TULIA 2ENE       N/A     81  49  33 NE14      30.15F
TURKEY 2WSW      N/A     82  51  33 NE13      30.10F
UMBARGER 3NNE    N/A     78  49  35 NE5       30.18F
$$

TXZ033>036-039>041-045>048-010000
TEXAS TECH WEST TEXAS MESONET/SOUTH PLAINS

CITY           SKY/WX    TMP DP  RH WIND       PRES   REMARKS
AIKEN 3WSW       N/A     80  54  41 N7        30.15F
ANTON 6SSW       N/A     82  49  31 N5        30.14S
BROWNFIELD 2S    N/A     83  51  32 NE6       30.12F
DENVR CTY 7WNW   N/A     82  51  34 N7        30.14F
GAIL 2ESE        N/A     87  54  32 NE5       30.07F
LAMESA 2SE       N/A     85  54  34 NE7       30.11F
LEVELLAND 4S     N/A     80  49  33 NE6       30.15F
LUBBOCK 3WNW     N/A     82  51  34 E5        30.13F
MORTON 1ENE      N/A     81  48  31 E6        30.16F
ODONNELL 1N      N/A     83  52  33 E5        30.11F
PLAINS 3N        N/A     81  54  39 E6        30.15F
RALLS 1SE        N/A     81  54  39 NE8       30.13F
REESE CENTER     N/A     82  47  29 NE8       30.14S
SEAGRAVES 1SW    N/A     83  54  36 NE5       30.13F
SEMINOLE 2NNE    N/A     84  52  33 NE5       30.12F
SLATON 2NE       N/A     80  54  40 NE8       30.12F
SNYDER 3E        N/A     83  59  45 N9        30.08F
SUNDOWN 8SW      N/A     81  50  34 NE6       30.15F
TAHOKA 3NNE      N/A     84  53  34 NE6       30.11F
WOLFFORTH 6SSW   N/A     83  51  32 NE7       30.14S
$$

TXZ031-032-036>038-042>044-010000-
TEXAS TECH WEST TEXAS MESONET/ROLLING PLAINS

CITY           SKY/WX    TMP DP  RH WIND       PRES   REMARKS
ASPERMONT 3NE    N/A     82  61  47 N6        30.05F
FLUVANNA 3WNW    N/A     84  54  35 N10       30.09F
GRAHAM 5SSW      N/A     83  52  34 NE9       30.10F
GUTHRIE 10WSW    N/A     84  58  41 N8        30.06F
HASKELL 1NW      N/A     80  60  50 N12       30.05F
JAYTON 1SSE      N/A     83  57  41 NE9       30.07F
KNOX CITY 3NW    N/A     82  58  44 NE13      30.06S
LK A HENRY 1NW   N/A     85  57  37 NE8       30.07F
NORTHFIELD 1S    N/A     84  57  39 NE7       30.08F
ODELL 4ENE       N/A     76  64  64 N8        30.08S
PADUCAH 10SW     N/A     82  59  45 N9        30.07F
POST 1NE         N/A     85  53  32 NE6       30.09F
RRING SPRGS 3N   N/A     82  56  40 NE8G18    30.10F
SEYMOUR 3NW      N/A     81  61  50 N14       30.05F
SPUR 1W          N/A     82  53  36 NE6       30.07F
WEINERT 2NNE     N/A     79  62  57 N10       30.06F
WHITE RVR 6NE    N/A     82  55  40 NE8       30.09F
$$

TXZ052-054-060>062-072-078-127-140-154-169-010000-
TEXAS TECH WEST TEXAS MESONET/PERMIAN BASIN/
CONCHO VALLEY/BIG COUNTRY/EDWARDS PLATEAU

CITY           SKY/WX    TMP DP  RH WIND       PRES   REMARKS
COYANOSA 2N      N/A     87  61  41 N6        30.08F
JUNCTION 1SSW    N/A     92  66  42 NE13      29.99F HX  95
MERTZON 3NNE     N/A     87  63  44 N9        30.05F
SAN ANGELO 7NW   N/A     86  59  39 NW6       30.04F
STRLNG CT 4WSW   N/A     82  60  46 N7        30.08F
ST LAWRNCE 5SW   N/A     82  56  41 N7        30.09F
SWEETWATR 11SW   N/A     82  61  50 N7        30.09F
WALL 1E          N/A     82  62  50 N9        30.06S
$$

TXZ055-058-074-075-080-082-010000-
TEXAS TECH WEST TEXAS MESONET/FAR WEST/SOUTHWEST MOUNTAINS/TRANS PECOS

CITY           SKY/WX    TMP DP  RH WIND       PRES   REMARKS
PRSMN GAP BBNP   N/A     91  61  37 NE18      30.02F
GUADLPE MTN NP   N/A     61  59  96 NE7       30.27F
$$



USA.gov is the U.S. government's official web portal to all federal, state and local government web resources and services.